RH
84 86 83 80 84 83 81 79 80 82 83 85 82 71 84 86 89 86 84 82 81 87 90 91 87 80 75 68 66 72 73 70 89 75 66 61 68 70 62 53 49 44 42 36 34 41 41
77 86 74 80 81 75 75 75 87 88 86 76 73 72 84 90 92 86 83 83 82 84 81 88 86 83 77 84 53 72 64 67 71 74 68 60 54 54 53 56 50 40 41 38 35 40 39
80 82 83 81 83 79 90 74 92 80 75 76 89 90 93 91 79 76 78 80 84 85 84 78 83 83 71 58 74 75 74 69 68 66 67 66 50 55 51 60 46 47 49 40 43 38 36
89 80 78 79 82 77 74 76 90 76 82 88 93 93 95 90 77 78 81 86 74 74 75 80 69 79 68 57 70 85 73 68 75 66 69 68 57 48 48 46 52 51 44 53 33 40 41
87 83 76 83 74 79 82 78 84 84 86 90 94 93 94 88 87 83 86 91 88 88 87 71 72 71 61 71 81 86 80 62 70 70 75 75 56 54 55 56 59 47 40 41 42 41 35
89 79 79 78 74 73 78 84 87 88 87 88 93 93 96 96 86 84 88 91 86 81 84 74 64 74 56 64 74 78 79 76 64 66 85 76 70 67 56 52 51 50 42 46 39 44 49
81 82 80 80 77 75 76 80 89 90 90 92 94 96 93 94 82 86 83 75 56 64 67 56 60 66 70 80 70 68 78 87 66 80 79 78 92 81 59 47 43 40 43 38 41 43 44
85 83 83 80 80 77 81 86 93 92 95 93 92 93 94 81 82 85 78 64 64 69 64 63 57 56 64 79 78 72 78 90 76 77 72 90 90 51 47 50 52 45 43 41 54 46 44
88 84 84 82 81 80 77 87 92 94 95 95 96 89 93 81 76 83 79 81 86 75 63 62 61 68 86 79 70 77 80 81 67 73 84 84 64 48 60 58 54 54 48 54 49 50 45
87 85 89 84 82 80 79 80 88 95 95 99 94 92 65 75 76 90 81 99 83 76 77 83 93 80 83 74 83 71 93 85 88 92 86 84 71 57 53 57 46 61 56 55 56 55 48
88 86 84 86 84 83 81 82 86 94 94 99 86 93 58 63 86 80 97 81 76 73 93 81 93 79 74 76 74 91 88 95 91 91 93 96 93 71 63 54 47 63 51 53 53 56 58
90 86 90 86 86 85 83 84 84 90 98 99 99 74 61 61 87 90 82 77 73 90 92 97 90 87 75 86 79 74 79 63 66 78 80 93 89 92 90 90 60 47 51 54 56 57 80
91 89 86 86 87 87 85 84 86 88 98 98 100 72 66 63 71 78 80 75 94 85 95 99 98 76 83 88 79 73 84 73 72 96 99 95 95 87 78 94 79 71 68 91 92 91 65
92 91 88 87 88 88 87 85 86 89 95 99 95 69 68 69 75 86 90 84 87 89 100 96 79 75 91 87 84 93 87 71 62 67 95 95 98 79 84 80 89 95 93 72 63 48 41
92 92 91 89 88 88 88 88 87 88 94 99 70 68 84 74 83 99 86 95 96 98 99 87 67 71 87 69 77 94 96 70 59 59 74 92 97 58 55 53 54 78 96 48 61 57 58
93 91 91 88 89 90 90 88 88 88 95 95 74 78 73 75 85 87 85 95 95 85 68 60 72 68 69 73 70 80 96 63 59 53 49 62 94 63 57 49 51 54 48 71 76 70 55
94 90 91 88 90 90 92 89 89 89 90 79 78 69 67 76 82 73 100 99 76 66 63 58 67 66 61 72 68 67 67 62 51 52 47 52 60 82 62 62 59 60 60 57 50 53 40
93 90 89 93 92 92 91 90 88 89 93 74 82 83 65 80 88 88 95 85 76 64 53 53 54 62 58 63 65 59 58 57 48 45 49 52 63 83 74 57 53 53 53 44 55 66 65
94 91 90 92 91 91 88 90 88 88 98 97 82 76 55 83 87 83 70 68 72 56 54 50 52 52 52 57 61 55 54 53 49 47 48 49 71 88 81 64 61 69 59 52 55 66 82
94 93 91 96 87 90 91 91 88 85 90 84 79 84 74 70 76 70 70 68 62 60 53 51 51 47 49 53 52 60 56 59 53 52 59 46 59 69 53 63 68 90 68 60 72 78 51
94 93 91 94 83 88 92 91 87 72 71 82 81 90 80 89 78 72 73 70 68 62 57 48 49 46 48 55 57 58 60 59 57 61 52 50 94 83 61 63 69 70 67 66 82 60 75
94 94 92 91 93 90 93 91 87 71 66 76 83 85 76 77 77 69 68 68 70 69 70 54 50 54 49 47 44 56 58 56 53 56 54 58 94 86 74 68 69 85 64 62 64 59 57
95 95 92 91 95 95 90 92 88 81 66 82 90 90 92 78 71 66 64 66 67 65 69 68 52 54 56 62 60 52 45 45 47 53 57 60 86 81 74 66 72 74 65 61 59 58 53
94 94 92 91 93 98 81 83 92 87 68 92 94 96 93 82 74 70 75 77 70 70 65 67 63 54 59 52 49 46 48 51 50 53 48 59 66 72 77 75 80 49 54 53 56 51 52
96 90 88 92 92 93 82 75 89 92 80 73 81 90 89 87 69 72 87 90 75 65 68 68 73 70 58 62 60 62 62 60 63 62 53 48 58 76 74 69 52 47 64 63 64 58 46
91 93 82 75 93 84 92 80 88 88 89 76 68 73 87 86 69 77 78 77 79 67 71 78 76 70 67 69 67 72 68 60 75 75 67 59 52 60 76 84 74 56 58 50 52 80 54
94 96 91 94 97 96 87 92 92 89 90 90 67 66 84 82 58 66 75 85 80 74 71 78 77 75 67 72 80 80 67 59 78 77 87 78 74 79 70 73 54 41 57 56 83 81 58
86 96 95 97 97 94 91 91 95 91 90 85 83 73 73 76 58 61 72 69 73 87 77 79 77 76 78 76 75 78 68 65 67 58 70 66 74 80 74 80 79 43 61 67 61 56 54
77 94 98 97 84 93 94 90 90 92 90 89 90 77 76 81 69 65 56 52 51 53 82 84 83 68 62 69 72 69 73 71 67 77 64 74 55 56 55 51 40 50 60 57 60 57 57
Wind_Speed
20 21 22 23 24 25 25 26 24 24 25 24 25 25 20 20 17 16 17 16 14 12 10 10 10 8 5 8 13 4 11 6 27 25 26 19 21 15 18 15 13 14 6 8 5 6 5
20 21 23 23 24 25 24 25 26 24 25 26 25 23 20 18 17 15 14 14 12 11 10 10 9 7 8 13 11 11 8 5 25 31 28 23 19 14 14 11 13 12 6 11 10 6 4
19 21 21 23 24 26 27 24 26 27 27 27 27 24 21 17 16 14 12 14 12 8 7 8 8 6 10 13 2 6 14 5 23 31 22 22 17 14 9 7 8 5 14 11 8 9 10
19 21 22 24 26 26 26 26 26 28 30 29 27 27 24 15 12 11 11 13 10 8 6 6 5 6 5 9 13 3 7 7 21 25 21 15 19 11 6 5 10 13 6 9 10 15 5
20 21 23 24 26 27 26 27 28 29 30 30 31 27 23 16 11 9 9 11 13 13 7 2 3 5 4 6 8 9 12 8 23 23 18 13 22 12 6 13 9 14 10 18 5 9 12
19 22 23 24 26 27 26 27 28 29 30 30 30 26 23 17 10 7 8 12 3 5 7 6 1 3 6 7 9 11 10 5 20 19 10 12 9 12 13 14 14 18 15 12 13 6 9
20 20 23 25 26 28 27 27 28 29 29 30 30 28 26 14 4 4 5 1 2 3 2 1 2 9 5 7 13 7 7 7 13 14 12 17 6 17 21 17 2 10 15 9 7 4 5
20 21 24 25 27 27 27 27 28 28 29 28 29 27 25 11 13 3 3 2 2 3 3 2 4 5 3 5 5 6 5 8 15 19 14 8 13 15 14 13 8 13 13 10 5 3 4
18 20 23 25 26 27 27 27 28 28 28 26 26 23 21 13 9 7 6 4 2 1 1 5 4 3 3 5 9 9 1 12 17 16 16 11 12 14 16 14 12 9 11 9 3 5 1
18 19 22 23 25 27 27 27 28 28 27 25 23 18 19 2 7 3 5 5 3 1 2 5 7 3 2 2 5 7 1 3 4 9 6 4 2 19 18 16 13 10 3 7 6 4 3
16 18 21 22 24 26 27 26 27 27 26 24 20 18 14 12 3 3 3 4 1 1 3 2 3 6 4 4 9 3 2 4 10 11 3 3 3 17 19 19 13 5 7 7 4 2 3
15 17 20 22 24 26 27 28 27 28 26 23 19 14 4 8 8 4 3 5 3 3 9 4 5 0 5 1 3 5 3 7 12 15 13 4 4 4 2 7 4 13 10 8 4 1 3
15 16 19 22 24 26 27 28 28 29 28 26 18 6 5 5 3 4 5 3 1 7 1 5 3 4 6 5 6 5 4 6 3 6 3 3 4 2 7 9 4 6 8 3 3 4 3
14 16 20 23 24 26 27 29 30 30 30 30 15 2 1 2 3 3 2 2 10 4 4 4 3 12 5 3 6 5 2 4 5 8 5 2 4 2 0 2 5 4 3 2 4 4 3
13 15 19 21 24 26 28 29 31 31 33 28 10 1 2 4 4 2 1 7 2 1 2 5 6 6 4 6 5 3 4 2 3 4 4 4 3 0 2 4 5 6 4 1 4 2 2
12 14 17 19 23 26 28 30 31 33 35 21 5 1 1 3 5 3 2 5 2 3 2 2 2 1 4 3 3 3 1 2 3 3 2 4 5 2 4 3 8 2 8 3 0 4 4
11 13 16 19 21 25 28 31 32 33 35 14 2 1 1 6 3 2 4 3 2 1 2 2 3 3 5 4 2 2 2 2 2 5 3 5 3 2 2 4 7 4 3 2 2 1 2
9 12 15 18 22 24 27 30 32 33 33 12 3 0 2 5 2 2 2 1 2 2 1 2 3 5 7 3 3 2 3 1 3 4 5 2 4 5 1 1 3 1 2 4 3 4 1
9 11 13 17 20 23 26 29 32 32 26 9 4 2 3 1 2 2 1 1 2 3 3 2 2 1 2 4 3 3 2 1 3 2 5 6 3 5 4 4 1 4 5 3 4 2 5
8 11 12 14 18 22 24 27 30 32 25 6 3 1 3 3 2 2 1 1 2 1 1 1 3 2 3 2 2 4 4 2 1 1 6 2 3 2 2 3 4 4 9 10 4 3 4
7 10 13 14 17 19 23 25 29 31 19 3 4 2 1 2 3 2 1 0 1 1 1 1 2 3 3 3 2 3 3 4 2 4 2 1 3 1 2 3 2 2 6 12 9 9 6
6 9 12 12 14 17 20 22 26 31 16 5 3 3 3 2 3 3 1 2 1 1 2 1 3 4 3 3 2 6 6 4 3 3 2 1 3 1 1 1 5 5 10 11 16 17 16
5 7 10 12 13 14 18 20 21 25 18 6 5 2 1 3 3 3 2 2 2 2 1 1 4 4 3 2 0 1 3 3 3 7 4 3 5 2 1 1 3 8 16 18 11 10 15
4 6 9 11 12 12 16 18 16 18 21 6 5 3 2 2 3 1 2 2 2 1 1 1 1 3 3 8 9 8 8 7 5 4 3 6 5 1 0 2 4 3 2 4 19 9 16
4 5 7 10 12 11 12 15 14 13 15 10 7 3 2 3 4 4 4 4 5 2 3 2 1 2 7 2 3 4 3 3 3 3 2 2 4 2 2 3 8 3 4 6 8 7 16
6 6 8 10 11 12 12 11 12 11 10 11 7 7 2 3 0 3 4 4 2 2 2 1 2 2 2 1 2 4 4 4 4 4 4 3 2 3 2 3 4 3 3 6 5 4 5
8 7 8 9 11 11 11 12 12 9 9 7 4 7 2 3 3 3 3 3 2 2 2 1 3 3 1 2 3 3 3 2 6 7 5 4 4 9 7 5 6 7 3 5 4 4 1
10 10 10 11 12 12 12 11 11 11 7 8 6 5 2 2 7 4 2 4 4 3 3 2 4 2 2 6 3 3 4 5 4 5 6 9 7 4 5 5 8 5 5 4 4 2 2
12 11 10 10 11 12 12 14 13 13 8 8 4 5 6 4 5 8 17 18 16 16 4 3 4 2 5 4 3 3 3 4 5 4 4 6 6 4 8 4 1 3 3 4 3 3 2
Wind_Direction
349 347 346 346 343 339 340 337 335 332 329 328 325 323 322 314 305 305 305 302 300 293 280 272 263 251 229 219 232 172 122 188 206 192 197 191 190 194 196 203 185 214 185 198 202 175 162
348 347 346 343 343 344 342 336 336 335 334 330 326 324 320 316 308 305 298 301 299 288 282 271 263 240 223 238 214 221 209 348 198 191 194 193 195 192 200 193 199 197 185 205 202 199 181
349 345 343 342 344 343 339 337 338 341 333 326 325 320 314 307 309 306 300 298 297 297 290 273 246 215 232 234 199 235 219 325 190 184 190 193 187 185 159 162 203 145 206 229 209 217 232
347 345 344 345 346 345 343 337 344 339 331 331 332 326 317 304 302 301 303 302 306 305 298 273 213 202 247 226 235 351 205 247 181 182 193 181 183 166 181 144 165 196 197 198 214 210 204
348 346 345 346 347 347 344 341 346 338 335 336 334 336 330 313 275 289 299 306 310 303 284 196 191 219 237 176 208 211 187 203 170 186 197 169 179 181 142 165 155 187 203 213 197 207 209
347 346 344 346 348 350 345 347 346 338 339 338 343 338 334 317 261 262 299 316 20 44 133 141 186 212 240 196 163 135 182 158 165 167 183 194 180 180 174 184 197 189 191 202 210 170 214
347 345 346 346 349 350 348 349 345 343 341 347 349 350 343 331 270 191 312 5 195 104 91 354 105 267 33 337 139 146 155 131 145 180 172 195 175 190 186 198 271 170 190 185 205 138 218
348 345 346 348 351 353 350 349 347 345 346 351 355 3 6 36 113 143 30 48 33 3 139 14 291 252 325 272 162 149 147 169 181 178 171 168 200 196 175 183 168 177 179 189 123 147 238
348 346 346 348 350 352 351 350 349 346 348 354 356 15 27 75 93 58 64 33 337 239 118 44 8 311 206 281 111 161 250 144 173 173 185 181 187 169 177 178 174 180 187 167 143 149 129
347 346 346 348 351 352 351 350 347 346 349 355 353 14 22 84 56 9 42 351 138 100 82 3 350 355 279 246 77 83 358 150 38 121 91 157 242 180 183 186 180 169 133 142 135 193 232
345 347 345 347 350 351 351 352 347 348 349 353 352 7 31 55 83 41 342 84 81 261 130 312 308 312 259 67 135 72 30 204 155 125 127 82 204 179 182 184 191 108 142 118 107 112 313
342 346 346 346 350 351 351 350 348 346 348 349 346 0 59 67 69 102 51 339 278 248 38 30 354 175 100 208 117 117 146 111 133 125 104 87 42 22 84 47 164 131 109 74 61 40 237
339 344 347 349 350 351 350 349 348 345 346 343 342 340 42 71 113 119 327 317 298 40 208 3 43 97 81 56 65 53 13 54 120 120 95 63 39 98 109 89 34 99 161 139 179 199 254
337 343 349 350 351 351 350 349 348 346 344 343 340 244 315 147 149 337 3 263 58 322 24 279 96 108 79 43 50 40 14 93 50 90 98 89 121 60 16 104 136 142 173 218 184 188 144
337 347 350 351 351 351 351 350 348 346 345 343 341 187 231 231 262 292 244 52 65 267 244 133 128 90 70 67 115 100 41 45 64 37 97 136 81 190 76 128 159 154 193 16 97 70 260
338 348 349 350 352 351 352 351 350 347 346 343 342 319 201 281 270 195 37 87 99 211 174 317 82 299 123 103 120 104 58 333 86 39 17 128 110 59 140 132 54 267 135 149 217 185 232
344 345 351 349 352 351 350 352 351 351 348 346 2 228 157 332 155 54 70 37 53 314 304 349 109 113 120 132 103 90 122 131 209 125 164 135 104 148 189 219 168 150 188 76 69 293 264
347 348 351 352 352 353 350 352 352 354 352 356 329 309 355 148 38 37 54 25 332 337 349 96 102 101 158 145 123 130 144 40 141 156 144 111 108 146 142 64 314 251 202 198 227 179 121
348 352 352 353 351 354 352 352 353 355 357 335 344 299 333 297 93 83 116 36 329 14 30 40 87 31 155 153 142 135 128 19 168 190 161 169 134 130 163 191 177 211 190 164 93 50 203
342 351 348 351 349 352 355 354 353 354 355 346 329 311 4 58 29 77 52 78 155 174 75 39 110 123 133 115 44 143 129 75 209 89 71 99 119 267 188 87 116 186 193 191 173 190 189
335 345 348 349 349 351 354 356 355 357 358 353 11 39 5 347 66 77 163 4 318 197 55 43 132 164 154 138 127 144 144 131 100 123 74 59 109 76 77 90 142 213 202 196 206 211 215
335 348 346 344 349 348 358 360 359 360 6 61 22 357 346 296 294 234 121 97 43 120 283 163 176 142 163 157 204 189 166 194 177 169 122 36 115 127 152 170 228 250 233 219 223 234 246
327 346 345 344 345 348 358 3 3 6 18 32 8 350 307 297 297 240 133 114 79 322 140 302 155 142 139 104 178 342 163 190 185 176 147 137 141 155 244 33 280 264 232 213 210 210 222
303 340 341 340 335 340 352 0 3 9 18 18 1 311 314 288 295 328 339 329 245 194 217 329 261 204 113 120 114 100 97 101 125 106 140 146 123 102 212 210 235 68 126 215 216 223 219
299 332 327 333 338 335 340 353 357 4 4 11 5 350 356 292 307 296 330 292 292 257 193 163 82 30 159 186 125 136 144 162 96 78 158 188 145 133 253 244 303 236 179 157 179 225 221
279 312 326 340 326 334 333 333 341 360 357 2 8 2 332 310 229 330 302 291 295 223 179 144 98 129 139 214 169 205 181 172 174 140 51 127 185 212 154 251 250 60 145 190 225 166 145
256 274 293 316 320 322 327 330 328 335 343 346 313 2 313 279 274 261 254 287 295 273 264 155 161 168 292 165 194 201 210 208 176 183 169 169 184 215 221 249 276 248 171 164 225 122 14
249 267 286 309 319 321 325 321 330 317 311 321 303 301 355 287 279 261 261 252 302 266 243 82 162 177 149 201 201 188 227 198 191 184 178 185 188 185 196 224 253 162 137 216 91 117 291
248 265 270 296 314 314 319 318 324 317 311 285 272 292 262 228 278 260 261 259 252 258 292 290 319 211 181 185 202 157 181 184 196 207 190 206 207 185 210 225 337 213 311 125 33 326 292